STARLINK-4316

operational
NORAD ID: 53471 Int'l Des: 2022-099 Owner: SPXS Country: US Constellation: starlink
LEOCIRCULARRETROGRADESSO

About STARLINK-4316

Description loading...

Live Position

Loading 3D Globe...

Upcoming Passes

Altitude History

Altitude vs Time

uPlot chart will show altitude changes over time

Two-Line Element Set

1 53471U 22099G 25259.28730969 -.00000036 00000-0 17496-5 0 9991
2 53471 97.6038 19.4773 0000716 94.8680 265.2626 15.01261501169811
Epoch: Sep 16, 2025 • Age: 6 hours

Current Status

Altitude 565.4 km
Velocity 7.58 km/s
Sub-Earth Point 5.30°N, 17.66°E
Launch Date Aug 12, 2022
Age 3 years
Decay Date Aug 2, 2025
Type internet

Technical Details

Classification Payload
Mass 300.00 kg
Dry Mass 275.00 kg
Total Mass 300.00 kg
Length 0.20 m
Diameter 2.80 m
Span 9.00 m
Shape Box + pan
Manufacturer SPXS
Bus Type Starlink
Phase Status Reentered
Owner/State SPXS/US

Large Constellations

Loading constellations...